McComb, MS

10:02 AM CDT on August 23, 2017 (GMT -0500)
McComb-Pike County-Lewis

Weather History for KMCB - March, 2012

Change the Weather History Date:

Sunday, March 18, 2012

  Actual Average Record
Temperature  
Mean Temperature 72 °F -  
Max Temperature 82 °F 72 °F 88 °F (1982)
Min Temperature 62 °F 47 °F 28 °F (1960)
Cooling Degree Days 7    
Growing Degree Days 22 (Base 50)    
Moisture  
Dew Point 64 °F    
Average Humidity 79    
Maximum Humidity 97    
Minimum Humidity 44    
Precipitation  
Precipitation 0.00 in - - ()
Sea Level Pressure  
Sea Level Pressure 30.15 in    
Wind  
Wind Speed 6 mph (SSE)    
Max Wind Speed 14 mph    
Max Gust Speed 22 mph    
Visibility 10 miles    
Events      
Averages and records for this station are not official NWS values.
T = Trace of Precipitation, MM = Missing Value Source: NWS Daily Summary

Daily Weather History Graph

Daily Weather History Graph

Search for Another Location

Airport or City:

Trip Planner

Search our weather history database for the weather conditions in past years. The results will help you decide how hot, cold, wet, or windy it might be!

Date:

Astronomy

Mar. 18, 2012 Rise Set
Actual Time 7:07 AM CDT 7:12 PM CDT
Civil Twilight 6:43 AM CDT 7:36 PM CDT
Nautical Twilight 6:15 AM CDT 8:04 PM CDT
Astronomical Twilight 5:46 AM CDT 8:33 PM CDT
Moon 4:33 AM CDT (3/18) 3:51 PM CDT (3/18)
Length of Visible Light 12h 53m
Length of Day
12h 04m
Waning Crescent, 15% of the Moon is Illuminated
Mar 18
Waning Crescent
Mar 22
New
Mar 30
First Quarter
Apr 6
Full
Apr 13
Last Quarter

Hourly Weather History & Observations

Time (CDT) Temp. Heat Index Dew Point Humidity Pressure Visibility Wind Dir Wind Speed Gust Speed Precip Events Conditions
12:50 AM 62.6 °F - 60.8 °F 94% 30.16 in 10.0 mi Calm Calm - N/A   Scattered Clouds
12:53 AM 62.1 °F - 61.0 °F 96% 30.14 in 10.0 mi Calm Calm - N/A   Scattered Clouds
1:01 AM 62.6 °F - 60.8 °F 94% 30.15 in 10.0 mi SE 3.5 mph - N/A   Mostly Cloudy
2:53 AM 66.0 °F - 64.9 °F 96% 30.12 in 6.0 mi SSE 9.2 mph - N/A   Overcast
4:53 AM 66.9 °F - 66.0 °F 97% 30.13 in 10.0 mi South 6.9 mph - N/A   Overcast
5:53 AM 66.9 °F - 66.0 °F 97% 30.14 in 10.0 mi SSE 4.6 mph - N/A   Overcast
7:53 AM 68.0 °F - 66.0 °F 93% 30.17 in 5.0 mi Calm Calm - N/A   Overcast
8:53 AM 69.1 °F - 66.0 °F 90% 30.19 in 10.0 mi SSE 6.9 mph - N/A   Overcast
9:29 AM 69.8 °F - 66.2 °F 88% 30.20 in 10.0 mi SE 8.1 mph - N/A   Overcast
9:53 AM 71.1 °F - 66.9 °F 87% 30.20 in 10.0 mi SSE 8.1 mph - N/A   Overcast
10:09 AM 73.4 °F - 66.2 °F 78% 30.21 in 10.0 mi SSE 9.2 mph - N/A   Mostly Cloudy
10:16 AM 73.4 °F - 66.2 °F 78% 30.21 in 10.0 mi SSE 8.1 mph - N/A   Mostly Cloudy
10:23 AM 73.4 °F - 66.2 °F 78% 30.22 in 10.0 mi SSE 12.7 mph 17.3 mph N/A   Mostly Cloudy
10:53 AM 73.0 °F - 64.9 °F 76% 30.21 in 10.0 mi SSE 10.4 mph - N/A   Scattered Clouds
11:53 AM 77.0 °F - 64.9 °F 66% 30.20 in 10.0 mi SSE 6.9 mph - N/A   Mostly Cloudy
12:53 PM 78.1 °F - 64.0 °F 62% 30.17 in 10.0 mi SSE 11.5 mph - N/A   Mostly Cloudy
1:53 PM 80.1 °F 81.5 °F 63.0 °F 56% 30.14 in 10.0 mi SSE 9.2 mph 21.9 mph N/A   Scattered Clouds
2:53 PM 81.0 °F 81.9 °F 62.1 °F 52% 30.12 in 10.0 mi SSE 11.5 mph 19.6 mph N/A   Mostly Cloudy
3:53 PM 82.0 °F 82.0 °F 57.9 °F 44% 30.10 in 10.0 mi South 13.8 mph - N/A   Partly Cloudy
4:53 PM 81.0 °F 81.6 °F 60.1 °F 49% 30.09 in 10.0 mi South 11.5 mph 20.7 mph N/A   Partly Cloudy
5:53 PM 78.1 °F - 63.0 °F 60% 30.09 in 10.0 mi SSE 10.4 mph - N/A   Clear
6:53 PM 75.0 °F - 63.0 °F 66% 30.09 in 10.0 mi South 13.8 mph - N/A   Clear
7:53 PM 71.1 °F - 64.0 °F 78% 30.11 in 10.0 mi South 6.9 mph - N/A   Clear
8:53 PM 69.1 °F - 63.0 °F 81% 30.12 in 10.0 mi SSE 8.1 mph - N/A   Clear
9:53 PM 68.0 °F - 64.0 °F 87% 30.12 in 10.0 mi SSE 9.2 mph - N/A   Clear
10:53 PM 66.9 °F - 63.0 °F 87% 30.12 in 10.0 mi SSE 6.9 mph - N/A   Clear
11:53 PM 66.9 °F - 64.9 °F 93% 30.11 in 10.0 mi SSE 6.9 mph - N/A   Mostly Cloudy